Weather History for College Station, TX

Change the Weather History Date:

Tuesday, December 18, 2012

  Actual Average Record
Temperature  
Mean Temperature 63 °F 52 °F  
Max Temperature 80 °F 62 °F 84 °F (1924)
Min Temperature 46 °F 42 °F 19 °F (1996)
Degree Days  
Heating Degree Days 2 14  
Month to date heating degree days 100 224  
Since 1 July heating degree days 284 449  
Cooling Degree Days 0 0  
Month to date cooling degree days 48 13  
Year to date cooling degree days 3607 3086  
Growing Degree Days 13 (Base 50)    
Moisture  
Dew Point 45 °F    
Average Humidity 56    
Maximum Humidity 84    
Minimum Humidity 28    
Precipitation  
Precipitation 0.00 in 0.10 in 1.30 in (1965)
Month to date precipitation 3.18 1.87  
Year to date precipitation 40.63 38.70  
Sea Level Pressure  
Sea Level Pressure 29.87 in    
Wind  
Wind Speed 8 mph (South)    
Max Wind Speed 17 mph    
Max Gust Speed 23 mph    
Visibility 10 miles    
Events      
T = Trace of Precipitation, MM = Missing Value Source: NWS Daily Summary

Daily Weather History Graph

Daily Weather History Graph

Search for Another Location

Airport:

Trip Planner

Search our weather history database for the weather conditions in past years. The results will help you decide how hot, cold, wet, or windy it might be!

Date:

Astronomy

Dec. 18, 2012 Rise Set
Actual Time 7:17 AM CST 5:27 PM CST
Civil Twilight 6:50 AM CST 5:54 PM CST
Nautical Twilight 6:20 AM CST 6:24 PM CST
Astronomical Twilight 5:51 AM CST 6:53 PM CST
Moon 11:19 AM CST (12/18) 11:30 PM CST (12/18)
Length of Visible Light 11h 03m
Length of Day
10h 10m
Waxing Crescent, 35% of the Moon is Illuminated
Dec 18
Waxing Crescent
Dec 19
First Quarter
Dec 28
Full
Jan 4
Last Quarter
Jan 11
New

Hourly Weather History & Observations

Time (CST) Temp. Dew Point Humidity Pressure Visibility Wind Dir Wind Speed Gust Speed Precip Events Conditions
12:53 AM 48.9 °F 35.1 °F 59% 29.89 in 10.0 mi SE 4.6 mph - N/A   Clear
1:53 AM 48.9 °F 36.0 °F 61% 29.88 in 10.0 mi Calm Calm - N/A   Clear
2:53 AM 46.9 °F 36.0 °F 66% 29.89 in 10.0 mi South 5.8 mph - N/A   Clear
3:53 AM 48.0 °F 37.0 °F 66% 29.88 in 10.0 mi South 5.8 mph - N/A   Clear
4:53 AM 46.9 °F 36.0 °F 66% 29.88 in 10.0 mi Calm Calm - N/A   Clear
5:53 AM 46.0 °F 36.0 °F 68% 29.88 in 10.0 mi Calm Calm - N/A   Clear
6:53 AM 48.0 °F 36.0 °F 63% 29.90 in 10.0 mi South 4.6 mph - N/A   Clear
7:53 AM 46.9 °F 37.9 °F 71% 29.91 in 10.0 mi Calm Calm - N/A   Clear
8:53 AM 55.0 °F 37.9 °F 53% 29.91 in 10.0 mi South 3.5 mph - N/A   Clear
9:53 AM 61.0 °F 39.9 °F 46% 29.93 in 10.0 mi SSW 4.6 mph - N/A   Clear
10:53 AM 66.9 °F 42.1 °F 40% 29.93 in 10.0 mi SSW 6.9 mph - N/A   Clear
11:53 AM 73.9 °F 43.0 °F 33% 29.91 in 10.0 mi South 11.5 mph 18.4 mph N/A   Clear
12:53 PM 77.0 °F 43.0 °F 30% 29.88 in 10.0 mi SSW 15.0 mph 20.7 mph N/A   Clear
1:53 PM 79.0 °F 45.0 °F 30% 29.84 in 10.0 mi SSW 12.7 mph - N/A   Clear
2:53 PM 80.1 °F 45.0 °F 29% 29.83 in 10.0 mi South 13.8 mph - N/A   Clear
3:53 PM 80.1 °F 46.9 °F 31% 29.81 in 10.0 mi South 11.5 mph - N/A   Clear
4:53 PM 78.1 °F 48.0 °F 35% 29.81 in 10.0 mi South 8.1 mph - N/A   Clear
5:53 PM 70.0 °F 52.0 °F 53% 29.81 in 10.0 mi SSE 8.1 mph - N/A   Clear
6:53 PM 71.1 °F 52.0 °F 51% 29.82 in 10.0 mi South 13.8 mph - N/A   Clear
7:53 PM 68.0 °F 55.0 °F 63% 29.84 in 10.0 mi South 12.7 mph - N/A   Clear
8:53 PM 66.9 °F 57.0 °F 70% 29.84 in 10.0 mi South 11.5 mph - N/A   Clear
9:53 PM 64.0 °F 57.0 °F 78% 29.85 in 10.0 mi South 10.4 mph - N/A   Clear
10:53 PM 63.0 °F 57.0 °F 81% 29.86 in 10.0 mi South 10.4 mph - N/A   Clear
11:53 PM 62.1 °F 57.9 °F 86% 29.85 in 10.0 mi SSE 8.1 mph - N/A   Clear